This is the latest recevied weather packets stored in our database for station/object N0KWA. If no packets are shown the sender has not sent any weather packets the latest 10 day(s).
| Time | Temp. | Humidity | Pressure | Rain* | Wind** | Luminosity | Snow |
|---|---|---|---|---|---|---|---|
| 1778161384 | 20.56° C | 99% | 1016.2 hPa | 0 mm | - | 3 W/m² | - |
| 1778161080 | 20.56° C | 99% | 1016.4 hPa | 0 mm | - | 5 W/m² | - |
| 1778160777 | 20.56° C | 99% | 1016.3 hPa | 0 mm | - | 3 W/m² | - |
| 1778160474 | 20.56° C | 99% | 1016.3 hPa | 0 mm | - | 1 W/m² | - |
| 1778160171 | 20.56° C | 99% | 1016.1 hPa | 0 mm | - | 3 W/m² | - |
| 1778159868 | 20.56° C | 99% | 1016.1 hPa | 0 mm | - | 5 W/m² | - |
| 1778159565 | 20.56° C | 99% | 1016.2 hPa | 0 mm | - | 5 W/m² | - |
| 1778159262 | 21.11° C | 99% | 1016.1 hPa | 0 mm | - | 7 W/m² | - |
| 1778158959 | 21.11° C | 99% | 1015.9 hPa | 0 mm | - | 1 W/m² | - |
| 1778158658 | 21.11° C | 99% | 1015.9 hPa | 0 mm | - | 1 W/m² | - |
| 1778158356 | 21.11° C | 99% | 1015.8 hPa | 0 mm | - | 1 W/m² | - |
| 1778158052 | 21.67° C | 99% | 1015.6 hPa | 0 mm | - | 1 W/m² | - |
| 1778157749 | 21.67° C | 99% | 1015.6 hPa | 0 mm | - | 5 W/m² | - |
| 1778157447 | 21.67° C | 99% | 1015.6 hPa | 0 mm | - | 0 W/m² | - |
| 1778157144 | 21.67° C | 99% | 1015.3 hPa | 0 mm | - | 0 W/m² | - |
| 1778156839 | 21.67° C | 99% | 1015.4 hPa | 0 mm | - | 0 W/m² | - |
| 1778156536 | 21.67° C | 99% | 1015.2 hPa | 0 mm | - | 0 W/m² | - |
| 1778156231 | 21.67° C | 99% | 1015.2 hPa | 0 mm | - | 0 W/m² | - |
| 1778155927 | 21.67° C | 99% | 1015 hPa | 0 mm | - | 0 W/m² | - |
| 1778155624 | 22.22° C | 99% | 1015 hPa | 0 mm | - | 1 W/m² | - |
| 1778155321 | 22.22° C | 99% | 1014.8 hPa | 0 mm | - | 0 W/m² | - |
| 1778155017 | 22.22° C | 99% | 1014.8 hPa | 0 mm | - | 0 W/m² | - |
| 1778154713 | 22.22° C | 99% | 1014.4 hPa | 0 mm | - | 0 W/m² | - |
| 1778154409 | 22.22° C | 99% | 1014.6 hPa | 0 mm | - | 0 W/m² | - |
| 1778154106 | 22.22° C | 99% | 1014.4 hPa | 0 mm | - | 0 W/m² | - |
* Rain latest hour (hover to see other rain measurements)
** Current wind speed in m/s (hover to see current wind gust speed)